Volver al catálogo

STARLINK-37440

ActivoComunicacionesVLEO
NORAD 69189·PAYLOAD·🇺🇸 United States

Lanzado May 25, 2026 desde Cape Canaveral Space Force Station

Loading…

Próximos Pases (próximas 24 horas)

TLE

ActualizadoSource: CelesTrak SupGP

Época: Sep 14, 2026, 15:16 UTC

1 69189C 26114H   26257.63659722  .00052492  00000+0  15509-2 0  2579
2 69189  53.1560 141.3116 0001201  98.1906 257.5113 15.34363251    17

Sigue STARLINK-37440 en tiempo real con AllMySat

Download on the App Store